When you browse on this site, cookies collect data to enhance your experience and personalize the content and advertising you see.
Visit our Privacy Policy to learn more. By continuing to use the site, you agree to this use of cookies and data.
  • en France
  • Liste des pays
  • À 7 jours
  • Température de l'eau
  • Carte satellitaire
  • Carte météo
  • Widgets météo
  • user-avatar
    Se connecter

    Météo par heure à Bordeaux

    Ce jour, 22 Mai, Mercredi

    Heure Température Précipitation Vent Pression Humidité
    00:00 +13°C° 0 mm 1 m/s 763 mmHg 92%
    01:00 +13°C° 0 mm 1 m/s 763 mmHg 93%
    02:00 +12°C° 0 mm 1 m/s 763 mmHg 93%
    03:00 +12°C° 0 mm 1 m/s 763 mmHg 94%
    04:00 +13°C° 0 mm 1 m/s 763 mmHg 92%
    05:00 +12°C° 0 mm 0 m/s 763 mmHg 89%
    06:00 +13°C° 0 mm 0 m/s 763 mmHg 87%
    07:00 +16°C° 0 mm 1 m/s 764 mmHg 78%
    08:00 +20°C° 0 mm 1 m/s 764 mmHg 69%
    09:00 +22°C° 0 mm 1 m/s 764 mmHg 59%
    10:00 +23°C° 0 mm 1 m/s 764 mmHg 54%
    11:00 +25°C° 0 mm 1 m/s 763 mmHg 48%
    12:00 +26°C° 0 mm 2 m/s 763 mmHg 43%
    13:00 +26°C° 0 mm 2 m/s 763 mmHg 42%
    14:00 +26°C° 0 mm 2 m/s 763 mmHg 41%
    15:00 +27°C° 0 mm 2 m/s 762 mmHg 40%
    16:00 +26°C° 0 mm 2 m/s 762 mmHg 44%
    17:00 +25°C° 0 mm 2 m/s 762 mmHg 49%
    18:00 +24°C° 0 mm 2 m/s 762 mmHg 54%
    19:00 +21°C° 0 mm 2 m/s 762 mmHg 60%
    20:00 +19°C° 0 mm 2 m/s 763 mmHg 66%
    21:00 +17°C° 0 mm 2 m/s 763 mmHg 73%
    22:00 +17°C° 0 mm 2 m/s 763 mmHg 75%
    23:00 +16°C° 0 mm 2 m/s 763 mmHg 77%

    Demain, 23 Mai, Jeudi

    Heure Température Précipitation Vent Pression Humidité
    00:00 +15°C° 0 mm 2 m/s 763 mmHg 79%
    01:00 +15°C° 0 mm 1 m/s 762 mmHg 81%
    02:00 +14°C° 0 mm 1 m/s 762 mmHg 83%
    03:00 +14°C° 0 mm 1 m/s 762 mmHg 85%
    04:00 +14°C° 0 mm 1 m/s 762 mmHg 82%
    05:00 +15°C° 0 mm 1 m/s 762 mmHg 80%
    06:00 +16°C° 0 mm 1 m/s 762 mmHg 77%
    07:00 +19°C° 0 mm 1 m/s 762 mmHg 68%
    08:00 +20°C° 0 mm 0 m/s 762 mmHg 60%
    09:00 +23°C° 0 mm 0 m/s 762 mmHg 52%
    10:00 +26°C° 0 mm 1 m/s 762 mmHg 47%
    11:00 +27°C° 0 mm 1 m/s 762 mmHg 43%
    12:00 +27°C° 0 mm 2 m/s 762 mmHg 38%
    13:00 +27°C° 0 mm 2 m/s 762 mmHg 39%
    14:00 +27°C° 0 mm 2 m/s 762 mmHg 40%
    15:00 +27°C° 0 mm 3 m/s 761 mmHg 41%
    16:00 +26°C° 0 mm 3 m/s 761 mmHg 47%
    17:00 +25°C° 0 mm 3 m/s 761 mmHg 52%
    18:00 +22°C° 0 mm 3 m/s 762 mmHg 58%
    19:00 +21°C° 0 mm 2 m/s 762 mmHg 62%
    20:00 +20°C° 0 mm 2 m/s 762 mmHg 65%
    21:00 +18°C° 0 mm 2 m/s 762 mmHg 69%
    22:00 +18°C° 0 mm 2 m/s 762 mmHg 70%
    23:00 +17°C° 0 mm 2 m/s 762 mmHg 71%

    Après-demain, 24 Mai, Vendredi

    Heure Température Précipitation Vent Pression Humidité
    00:00 +17°C° 0 mm 2 m/s 762 mmHg 73%
    01:00 +17°C° 0 mm 2 m/s 762 mmHg 76%
    02:00 +16°C° 0 mm 1 m/s 762 mmHg 78%
    03:00 +16°C° 0 mm 1 m/s 762 mmHg 81%
    04:00 +16°C° 0 mm 2 m/s 762 mmHg 81%
    05:00 +16°C° 0 mm 2 m/s 762 mmHg 81%
    06:00 +17°C° 0 mm 3 m/s 762 mmHg 82%
    07:00 +18°C° 0 mm 3 m/s 762 mmHg 76%
    08:00 +19°C° 0 mm 2 m/s 762 mmHg 70%
    09:00 +21°C° 0 mm 2 m/s 763 mmHg 65%
    10:00 +21°C° 0.4 mm 3 m/s 763 mmHg 62%
    11:00 +22°C° 0.4 mm 3 m/s 762 mmHg 59%
    12:00 +24°C° 0.4 mm 3 m/s 762 mmHg 57%
    13:00 +24°C° 0.8 mm 3 m/s 762 mmHg 59%
    14:00 +23°C° 0.8 mm 4 m/s 762 mmHg 62%
    15:00 +22°C° 0.8 mm 4 m/s 762 mmHg 65%
    16:00 +22°C° 0.5 mm 4 m/s 762 mmHg 67%
    17:00 +21°C° 0.5 mm 4 m/s 762 mmHg 69%
    18:00 +21°C° 0.5 mm 4 m/s 762 mmHg 72%
    19:00 +19°C° 0.1 mm 3 m/s 763 mmHg 75%
    20:00 +18°C° 0.1 mm 3 m/s 763 mmHg 78%
    21:00 +16°C° 0.1 mm 3 m/s 763 mmHg 81%
    22:00 +16°C° 0 mm 3 m/s 763 mmHg 83%
    23:00 +14°C° 0 mm 3 m/s 763 mmHg 85%

    25 Mai, Samedi

    Heure Température Précipitation Vent Pression Humidité
    00:00 +14°C° 0 mm 3 m/s 764 mmHg 87%
    01:00 +14°C° 0 mm 2 m/s 763 mmHg 89%
    02:00 +14°C° 0 mm 2 m/s 763 mmHg 92%
    03:00 +13°C° 0 mm 2 m/s 763 mmHg 94%
    04:00 +14°C° 0 mm 2 m/s 763 mmHg 92%
    05:00 +14°C° 0 mm 2 m/s 764 mmHg 91%
    06:00 +14°C° 0 mm 2 m/s 764 mmHg 90%
    07:00 +16°C° 0 mm 2 m/s 764 mmHg 80%
    08:00 +18°C° 0 mm 3 m/s 764 mmHg 71%
    09:00 +20°C° 0 mm 3 m/s 765 mmHg 62%
    10:00 +21°C° 0 mm 3 m/s 765 mmHg 58%
    11:00 +22°C° 0 mm 4 m/s 765 mmHg 54%
    12:00 +23°C° 0 mm 4 m/s 765 mmHg 49%
    13:00 +23°C° 0 mm 4 m/s 764 mmHg 51%
    14:00 +23°C° 0 mm 4 m/s 764 mmHg 53%
    15:00 +23°C° 0 mm 5 m/s 764 mmHg 55%
    16:00 +22°C° 0 mm 5 m/s 764 mmHg 60%
    17:00 +21°C° 0 mm 5 m/s 764 mmHg 66%
    18:00 +20°C° 0 mm 5 m/s 764 mmHg 72%
    19:00 +18°C° 0 mm 4 m/s 765 mmHg 77%
    20:00 +17°C° 0 mm 3 m/s 765 mmHg 83%
    21:00 +15°C° 0 mm 2 m/s 766 mmHg 89%
    22:00 +15°C° 0 mm 2 m/s 766 mmHg 91%
    23:00 +15°C° 0 mm 2 m/s 766 mmHg 93%

    26 Mai, Dimanche

    Heure Température Précipitation Vent Pression Humidité
    00:00 +14°C° 0 mm 2 m/s 766 mmHg 95%
    01:00 +14°C° 0 mm 2 m/s 766 mmHg 96%
    02:00 +14°C° 0 mm 1 m/s 765 mmHg 96%
    03:00 +14°C° 0 mm 1 m/s 765 mmHg 97%
    04:00 +14°C° 0 mm 1 m/s 765 mmHg 94%
    05:00 +15°C° 0 mm 1 m/s 765 mmHg 91%
    06:00 +16°C° 0 mm 1 m/s 765 mmHg 89%
    07:00 +19°C° 0 mm 1 m/s 766 mmHg 78%
    08:00 +20°C° 0 mm 2 m/s 766 mmHg 67%
    09:00 +23°C° 0 mm 2 m/s 766 mmHg 57%
    10:00 +22°C° 0 mm 3 m/s 766 mmHg 57%
    11:00 +22°C° 0 mm 3 m/s 766 mmHg 58%
    12:00 +22°C° 0 mm 3 m/s 766 mmHg 58%
    13:00 +23°C° 0 mm 4 m/s 766 mmHg 58%
    14:00 +23°C° 0 mm 4 m/s 765 mmHg 58%
    15:00 +23°C° 0 mm 4 m/s 765 mmHg 57%
    16:00 +22°C° 0 mm 4 m/s 765 mmHg 61%
    17:00 +21°C° 0 mm 4 m/s 765 mmHg 65%
    18:00 +20°C° 0 mm 4 m/s 764 mmHg 69%
    19:00 +18°C° 0 mm 3 m/s 765 mmHg 76%
    20:00 +16°C° 0 mm 3 m/s 765 mmHg 84%
    21:00 +14°C° 0 mm 2 m/s 765 mmHg 92%
    22:00 +14°C° 0 mm 2 m/s 765 mmHg 92%
    23:00 +14°C° 0 mm 2 m/s 765 mmHg 92%

    27 Mai, Lundi

    Heure Température Précipitation Vent Pression Humidité
    00:00 +14°C° 0 mm 2 m/s 765 mmHg 92%
    01:00 +15°C° 0 mm 2 m/s 765 mmHg 92%
    02:00 +15°C° 0 mm 2 m/s 765 mmHg 92%
    03:00 +15°C° 0 mm 2 m/s 764 mmHg 91%
    04:00 +15°C° 0 mm 2 m/s 764 mmHg 91%
    05:00 +16°C° 0 mm 1 m/s 764 mmHg 91%
    06:00 +16°C° 0 mm 1 m/s 764 mmHg 91%
    07:00 +18°C° 0 mm 1 m/s 764 mmHg 86%
    08:00 +18°C° 0 mm 2 m/s 764 mmHg 82%
    09:00 +18°C° 0 mm 2 m/s 764 mmHg 78%
    10:00 +19°C° 0.1 mm 2 m/s 764 mmHg 74%
    11:00 +20°C° 0.1 mm 2 m/s 764 mmHg 71%
    12:00 +21°C° 0.1 mm 2 m/s 764 mmHg 67%
    13:00 +23°C° 0 mm 2 m/s 764 mmHg 64%
    14:00 +22°C° 0 mm 3 m/s 764 mmHg 60%
    15:00 +24°C° 0 mm 3 m/s 763 mmHg 56%
    16:00 +22°C° 0 mm 3 m/s 763 mmHg 61%
    17:00 +21°C° 0 mm 4 m/s 763 mmHg 65%
    18:00 +20°C° 0 mm 4 m/s 763 mmHg 69%
    19:00 +18°C° 0 mm 3 m/s 763 mmHg 77%
    20:00 +16°C° 0 mm 2 m/s 764 mmHg 85%
    21:00 +15°C° 0 mm 2 m/s 764 mmHg 93%
    22:00 +15°C° 0 mm 2 m/s 764 mmHg 94%
    23:00 +15°C° 0 mm 1 m/s 763 mmHg 95%
    Voir plus